Tracking 21970 objects as of 25-Nov-2020
HD Live streaming from Space Station
objects crossing your sky now

ARIANE 5 R/B

Track ARIANE 5 R/B now!


NORAD ID: 28904
Int'l Code: 2005-046C
Perigee: 470.3 km
Apogee: 35,392.3 km
Inclination: 6.8 °
Period: 628.4 minutes
Semi major axis: 24302 km
RCS: 36.3411 m2 (large)
Launch date: November 16, 2005
Source: France (FR)
Launch site: FRENCH GUIANA (FRGUI)

Note: This is a ROCKET BODY
aabbcc
Your satellite tracking list
Your tracking list is empty




NASA's NSSDC Master Catalog

Two Line Element Set (TLE):
1 28904U 05046C   20329.43535337 -.00000023 +00000-0 +21810-3 0  9998
2 28904 006.8355 200.2354 7184922 171.9980 213.5720 02.29156569125650
Source of the keplerian elements: AFSPC